Location: Unspecified
(46.0725°N, 13.7344°E)
Time: 19:07:58
(UTC+01:00)

CZ-3 Stage 3 - Visible Passes

Search period start: 17 January 2018 00:00
Search period end: 27 January 2018 00:00
Orbit: 426 x 34771 km, 31.0° (Epoch: 16 January)

Date Brightness Start Highest point End Pass type
(mag) Time Alt. Az. Time Alt. Az. Time Alt. Az.
19 Jan 7.9 12:21:49 10° S 12:40:40 11° SSE 12:52:14 10° SSE visible
22 Jan 7.9 11:56:46 10° S 12:32:20 11° SSE 12:48:27 10° SSE visible
25 Jan 7.8 11:33:21 10° S 12:23:53 12° SSE 12:42:22 10° SE visible
